Weather History for Moses Lake, WA

Change the Weather History Date:

Tuesday, May 21, 2013

  Actual Average Record
Temperature  
Mean Temperature 58 °F 61 °F  
Max Temperature 68 °F 75 °F 85 °F (1983)
Min Temperature 47 °F 46 °F 37 °F (2001)
Degree Days  
Heating Degree Days 7 5  
Month to date heating degree days 73 167  
Since 1 July heating degree days 5181 5784  
Cooling Degree Days 0 1  
Month to date cooling degree days 50 11  
Year to date cooling degree days 50 12  
Growing Degree Days 8 (Base 50)    
Moisture  
Dew Point 46 °F    
Average Humidity 65    
Maximum Humidity 89    
Minimum Humidity 40    
Precipitation  
Precipitation 0.10 in 0.02 in 0.17 in (1986)
Month to date precipitation 0.11 0.40  
Year to date precipitation 1.49 3.82  
Sea Level Pressure  
Sea Level Pressure 29.70 in    
Wind  
Wind Speed 9 mph (South)    
Max Wind Speed 23 mph    
Max Gust Speed 28 mph    
Visibility 10 miles    
Events Rain    
T = Trace of Precipitation, MM = Missing Value Source: NWS Daily Summary

Daily Weather History Graph

Daily Weather History Graph

Search for Another Location

Airport:

Trip Planner

Search our weather history database for the weather conditions in past years. The results will help you decide how hot, cold, wet, or windy it might be!

Date:

Astronomy

May. 21, 2013 Rise Set
Actual Time 5:14 AM PDT 8:34 PM PDT
Civil Twilight 4:36 AM PDT 9:11 PM PDT
Nautical Twilight 3:47 AM PDT 10:01 PM PDT
Astronomical Twilight 2:45 AM PDT 11:04 PM PDT
Moon 4:40 PM PDT (5/21) 3:00 AM PDT (5/21)
Length of Visible Light 16h 35m
Length of Day
15h 20m
Waxing Gibbous, 85% of the Moon is Illuminated
May 21
Waxing Gibbous
May 24
Full
May 31
Last Quarter
Jun 8
New
Jun 16
First Quarter

Hourly Weather History & Observations

Time (PDT) Temp. Dew Point Humidity Pressure Visibility Wind Dir Wind Speed Gust Speed Precip Events Conditions
12:52 AM 54.0 °F 42.1 °F 64% 29.79 in 10.0 mi NE 5.8 mph - N/A   Clear
1:52 AM 53.1 °F 43.0 °F 69% 29.76 in 10.0 mi NNE 6.9 mph - N/A   Clear
2:52 AM 52.0 °F 42.1 °F 69% 29.73 in 10.0 mi North 6.9 mph - N/A   Clear
3:52 AM 51.1 °F 42.1 °F 71% 29.71 in 10.0 mi North 9.2 mph - N/A   Clear
4:52 AM 53.1 °F 42.1 °F 66% 29.68 in 10.0 mi NNE 8.1 mph - N/A   Clear
5:52 AM 51.1 °F 43.0 °F 74% 29.67 in 10.0 mi Calm Calm - N/A   Clear
6:52 AM 55.0 °F 44.1 °F 67% 29.65 in 10.0 mi Calm Calm - N/A   Clear
7:52 AM 59.0 °F 45.0 °F 60% 29.65 in 10.0 mi SSW 6.9 mph - N/A   Clear
8:52 AM 61.0 °F 46.0 °F 58% 29.65 in 10.0 mi SSW 3.5 mph - N/A   Mostly Cloudy
9:52 AM 66.0 °F 46.0 °F 48% 29.63 in 10.0 mi WSW 9.2 mph - N/A   Clear
10:52 AM 66.9 °F 41.0 °F 39% 29.64 in 10.0 mi West 10.4 mph 20.7 mph N/A   Overcast
11:52 AM 61.0 °F 48.0 °F 62% 29.65 in 10.0 mi WSW 20.7 mph - 0.00 in Rain Light Rain
12:52 PM 55.9 °F 46.9 °F 72% 29.68 in 10.0 mi WSW 19.6 mph 25.3 mph 0.00 in Rain Light Rain
1:52 PM 52.0 °F 48.9 °F 89% 29.73 in 7.0 mi WSW 10.4 mph - 0.06 in Rain Light Rain
2:52 PM 52.0 °F 48.0 °F 86% 29.70 in 10.0 mi SE 4.6 mph - 0.04 in   Overcast
3:08 PM 53.6 °F 48.2 °F 82% 29.71 in 10.0 mi South 13.8 mph - N/A   Overcast
3:37 PM 53.6 °F 48.2 °F 82% 29.72 in 10.0 mi South 15.0 mph - N/A   Mostly Cloudy
3:48 PM 53.6 °F 48.2 °F 82% 29.71 in 10.0 mi South 12.7 mph - N/A   Mostly Cloudy
3:52 PM 54.0 °F 48.0 °F 80% 29.71 in 10.0 mi SSW 13.8 mph - N/A   Scattered Clouds
4:52 PM 55.9 °F 46.0 °F 69% 29.70 in 10.0 mi South 10.4 mph - N/A   Partly Cloudy
5:34 PM 57.2 °F 46.4 °F 67% 29.71 in 10.0 mi South 9.2 mph - N/A   Mostly Cloudy
5:50 PM 57.2 °F 46.4 °F 67% 29.71 in 10.0 mi SSE 11.5 mph - N/A   Scattered Clouds
5:52 PM 57.0 °F 48.0 °F 72% 29.71 in 10.0 mi SSE 11.5 mph - N/A   Scattered Clouds
6:52 PM 55.9 °F 46.9 °F 72% 29.72 in 10.0 mi South 10.4 mph - N/A   Clear
7:52 PM 55.0 °F 48.0 °F 77% 29.72 in 10.0 mi SE 8.1 mph - N/A   Partly Cloudy
8:52 PM 52.0 °F 48.0 °F 86% 29.73 in 10.0 mi SE 6.9 mph - N/A   Mostly Cloudy
9:52 PM 51.1 °F 46.0 °F 83% 29.74 in 10.0 mi ESE 12.7 mph - N/A   Overcast
10:52 PM 50.0 °F 44.1 °F 80% 29.75 in 10.0 mi ESE 16.1 mph 20.7 mph N/A   Mostly Cloudy
11:52 PM 48.0 °F 42.1 °F 80% 29.75 in 10.0 mi ESE 12.7 mph - N/A   Overcast